Weather History for KCLT - July, 2012

Change the Weather History Date:

Friday, July 20, 2012

  Actual Average Record
Temperature  
Mean Temperature 83 °F 79 °F  
Max Temperature 93 °F 89 °F 101 °F (1986)
Min Temperature 72 °F 68 °F 60 °F (1910)
Degree Days  
Heating Degree Days 0 0  
Month to date heating degree days 0 0  
Since 1 June heating degree days 0 3  
Since 1 July heating degree days 0 0  
Cooling Degree Days 18 14  
Month to date cooling degree days 349 273  
Year to date cooling degree days 976 747  
Since 1 June cooling degree days 647 584  
Growing Degree Days 33 (Base 50)    
Moisture  
Dew Point 71 °F    
Average Humidity 70    
Maximum Humidity 93    
Minimum Humidity 47    
Precipitation  
Precipitation 0.41 in 0.12 in 1.25 in (1919)
Month to date precipitation 3.88 2.25  
Year to date precipitation 19.96 22.95  
Snow  
Snow 0.00 in 0.00 in 0.00 in ()
Month to date snowfall 0.0 0.0  
Since 1 June snowfall 0.0 0.0  
Since 1 July snowfall 0.0 0.0  
Snow Depth 0.00 in    
Sea Level Pressure  
Sea Level Pressure 29.95 in    
Wind  
Wind Speed 5 mph (SSW)    
Max Wind Speed 32 mph    
Max Gust Speed 39 mph    
Visibility 9 miles    
Events Fog , Rain , Thunderstorm    
T = Trace of Precipitation, MM = Missing Value Source: NWS Daily Summary

Daily Weather History Graph

Daily Weather History Graph

Search for Another Location

Airport or City:

Trip Planner

Search our weather history database for the weather conditions in past years. The results will help you decide how hot, cold, wet, or windy it might be!

Date:

Astronomy

Jul. 20, 2012 Rise Set
Actual Time 6:24 AM EDT 8:35 PM EDT
Civil Twilight 5:55 AM EDT 9:04 PM EDT
Nautical Twilight 5:20 AM EDT 9:39 PM EDT
Astronomical Twilight 4:42 AM EDT 10:17 PM EDT
Moon 7:54 AM EDT (7/20) 9:21 PM EDT (7/20)
Length of Visible Light 15h 08m
Length of Day
14h 11m
New Moon, 2% of the Moon is Illuminated
Jul 20
New Moon
Jul 26
First Quarter
Aug 1
Full
Aug 9
Last Quarter
Aug 17
New

Hourly Weather History & Observations

Time (EDT) Temp. Heat Index Dew Point Humidity Pressure Visibility Wind Dir Wind Speed Gust Speed Precip Events Conditions
12:52 AM 75.2 °F - 69.8 °F 83% 29.98 in 10.0 mi SW 3.5 mph - N/A   Mostly Cloudy
1:52 AM 75.9 °F - 69.1 °F 79% 29.94 in 10.0 mi SW 5.8 mph - N/A   Mostly Cloudy
2:52 AM 75.0 °F - 69.1 °F 82% 29.92 in 10.0 mi SW 3.5 mph - N/A   Mostly Cloudy
3:52 AM 73.9 °F - 70.0 °F 87% 29.90 in 10.0 mi South 5.8 mph - N/A   Mostly Cloudy
4:52 AM 75.0 °F - 71.1 °F 87% 29.92 in 10.0 mi SW 8.1 mph - N/A   Mostly Cloudy
5:52 AM 73.9 °F - 71.1 °F 91% 29.93 in 10.0 mi SSW 6.9 mph - N/A   Mostly Cloudy
6:52 AM 73.9 °F - 71.1 °F 91% 29.94 in 6.0 mi SSW 8.1 mph - N/A   Mostly Cloudy
7:52 AM 75.2 °F - 71.6 °F 89% 29.98 in 10.0 mi SW 6.9 mph - N/A   Mostly Cloudy
8:52 AM 78.1 °F - 72.0 °F 81% 29.96 in 10.0 mi WSW 5.8 mph - N/A   Overcast
9:52 AM 79.0 °F - 72.0 °F 79% 29.97 in 10.0 mi WSW 5.8 mph - N/A   Overcast
10:32 AM 80.6 °F 84.6 °F 71.6 °F 74% 29.99 in 10.0 mi SW 5.8 mph - N/A   Overcast
10:52 AM 82.0 °F 86.7 °F 72.0 °F 71% 29.96 in 10.0 mi Variable 5.8 mph - N/A   Mostly Cloudy
12:52 PM 88.0 °F 92.9 °F 70.0 °F 55% 29.96 in 10.0 mi Variable 3.5 mph - N/A   Scattered Clouds
1:52 PM 87.1 °F 92.8 °F 71.1 °F 59% 29.94 in 10.0 mi West 4.6 mph - N/A   Scattered Clouds
2:52 PM 90.0 °F 93.6 °F 68.0 °F 48% 29.90 in 10.0 mi Variable 6.9 mph - N/A   Mostly Cloudy
3:52 PM 91.0 °F 95.2 °F 68.0 °F 47% 29.90 in 10.0 mi SW 6.9 mph - N/A   Mostly Cloudy
4:12 PM 89.6 °F 93.4 °F 68.0 °F 49% 29.92 in 10.0 mi NNW 3.5 mph - N/A Thunderstorm Thunderstorm
4:37 PM 78.8 °F - 71.6 °F 78% 29.95 in 10.0 mi South 25.3 mph 39.1 mph N/A Thunderstorm Thunderstorm
4:39 PM 78.8 °F - 71.6 °F 78% 29.96 in 0.5 mi South 21.9 mph 39.1 mph 0.00 in Rain , Thunderstorm Light Thunderstorms and Rain
4:45 PM 75.2 °F - 71.6 °F 89% 29.97 in 0.5 mi SSE 21.9 mph 34.5 mph 0.00 in Fog , Rain , Thunderstorm Light Thunderstorms and Rain
4:49 PM 75.2 °F - 71.6 °F 89% 29.98 in 5.0 mi SSE 12.7 mph 32.2 mph 0.00 in Rain , Thunderstorm Light Thunderstorms and Rain
4:55 PM 75.2 °F - 71.6 °F 89% 29.98 in 0.5 mi SSE 9.2 mph 32.2 mph 0.12 in Rain , Thunderstorm Heavy Thunderstorms and Rain
5:10 PM 73.4 °F - 71.6 °F 94% 29.96 in 5.0 mi ESE 6.9 mph - 0.29 in Rain , Thunderstorm Heavy Thunderstorms and Rain
5:35 PM 73.4 °F - 71.6 °F 94% 29.97 in 9.0 mi South 4.6 mph - 0.33 in Rain Light Rain
5:52 PM 73.9 °F - 72.0 °F 93% 29.95 in 10.0 mi Calm Calm - 0.33 in Rain Light Rain
6:52 PM 73.9 °F - 72.0 °F 93% 29.94 in 10.0 mi South 6.9 mph - 0.03 in Rain Light Rain
7:52 PM 73.9 °F - 71.1 °F 91% 29.96 in 10.0 mi SSW 4.6 mph - 0.00 in   Mostly Cloudy
8:52 PM 73.9 °F - 72.0 °F 93% 29.96 in 10.0 mi Calm Calm - 0.01 in   Overcast
9:52 PM 73.9 °F - 71.1 °F 91% 29.96 in 10.0 mi SSW 3.5 mph - N/A   Mostly Cloudy
10:52 PM 73.0 °F - 71.1 °F 93% 29.97 in 10.0 mi Calm Calm - N/A   Mostly Cloudy
11:52 PM 73.0 °F - 70.0 °F 90% 29.96 in 10.0 mi Calm Calm - N/A   Mostly Cloudy